Regional Weather Roundup
Issued by NWS

Home | Current Version | Previous Version | Graphics & Text | Print | Product List | Glossary On
Versions: 1 2 3 4 5 6 7 8 9 10 11 12 13 14 15 16 17 18 19 20 21 22 23 24 25 26 27 28
000
ASUS45 KCYS 261210
RWRWY

WYOMING REGIONAL WEATHER ROUNDUP
NATIONAL WEATHER SERVICE CHEYENNE WY
600 AM MDT TUE JUL 26 2016

NOTE:  "FAIR" INDICATES FEW OR NO CLOUDS BELOW 12,000 FEET
WITH NO SIGNIFICANT WEATHER AND/OR OBSTRUCTIONS TO VISIBILITY.

WYZ001-261300-
YELLOWSTONE NATIONAL PARK

CITY           SKY/WX    TMP DP  RH WIND       PRES   REMARKS
LK YELLOWSTONE   N/A     39  34  82 NW3       30.36R
6HR MIN TEMP:  39; 6HR MAX TEMP:  49;

W YELLOWSTONE  NOT AVBL

$$
WYZ002>013-054>058-071-098>099-261300-
NORTHERN WYOMING

CITY           SKY/WX    TMP DP  RH WIND       PRES   REMARKS
JACKSON        FAIR      41  32  70 N6        30.27R
CODY           FAIR      57  39  51 S5        30.16S
GREYBULL       FAIR      68  45  43 NW12      30.06R
6HR MIN TEMP:  68; 6HR MAX TEMP:  82;

WORLAND        FAIR      65  43  44 SW9       30.10R
6HR MIN TEMP:  64; 6HR MAX TEMP:  78;

SHERIDAN       FAIR      68  47  46 NW14      30.08R
6HR MIN TEMP:  65; 6HR MAX TEMP:  77;

BUFFALO        FAIR      65  45  48 NW10      30.14R
6HR MIN TEMP:  65; 6HR MAX TEMP:  79;

GILLETTE       FAIR      64  54  69 N9        30.09R
6HR MIN TEMP:  63; 6HR MAX TEMP:  76; 6HR PCP: TRACE;

HULETT         FAIR      61  57  88 N5        30.11F THUNDER
NEWCASTLE      FAIR      73  52  46 E9        30.02S

$$
WYZ014>020-022>026-101>103-261300-
CENTRAL WYOMING

CITY           SKY/WX    TMP DP  RH WIND       PRES   REMARKS
BIG PINEY      FAIR      43  27  53 VRB5      30.31R
6HR MIN TEMP:  42; 6HR MAX TEMP:  60;

PINEDALE       FAIR      41  32  70 NW5       30.31R
DUBOIS           N/A     50  21  32 NW7       30.28S HAZE
LANDER         FAIR      62  39  42 SE8       30.17R
6HR MIN TEMP:  62; 6HR MAX TEMP:  77;

RIVERTON       FAIR      67  41  38 NE9       30.17R
6HR MIN TEMP:  65; 6HR MAX TEMP:  74;

CASPER         FAIR      60  39  45 NW7       30.15R
6HR MIN TEMP:  54; 6HR MAX TEMP:  65;

DOUGLAS          N/A    N/A N/A N/A MISG      30.10R

$$
WYZ021-027>030-104>119-261300-
SOUTHERN WYOMING

CITY           SKY/WX    TMP DP  RH WIND       PRES   REMARKS
EVANSTON       FAIR      64  33  31 W3        30.30R
6HR MIN TEMP:  59; 6HR MAX TEMP:  70;

KEMMERER         N/A     50  30  46 N12       30.30S
FORT BRIDGER   FAIR      60  32  34 SE3       30.30R
ROCK SPRINGS   FAIR      61  29  29 SW7       30.26S
6HR MIN TEMP:  61; 6HR MAX TEMP:  71;

DIXON          FAIR      51  38  61 CALM      30.30R
RAWLINS        FAIR      56  30  37 SE8       30.25S
6HR MIN TEMP:  52; 6HR MAX TEMP:  71;

SARATOGA       FAIR      54  32  43 SW3       30.29R
LARAMIE        FAIR      52  36  54 CALM      30.29R
6HR MIN TEMP:  52; 6HR MAX TEMP:  60;

CHEYENNE       FAIR      56  46  69 W7        30.18S
6HR MIN TEMP:  55; 6HR MAX TEMP:  66;

TORRINGTON     FAIR      61  61 100 E7        30.04R
6HR MIN TEMP:  61; 6HR MAX TEMP:  74;

PINE BLUFFS    FAIR      54  54 100 CALM      30.13R

$$




USA.gov is the U.S. government's official web portal to all federal, state and local government web resources and services.